TimePDT,TemperatureF,Dew PointF,Humidity,Sea Level PressureIn,VisibilityMPH,Wind Direction,Wind SpeedMPH,Gust SpeedMPH,PrecipitationIn,Events,Conditions,WindDirDegrees,DateUTC
5:56 AM,41.0,33.1,73,29.74,10.0,NNE,4.6,-,N/A,,Clear,30,2013-09-25 12:56:00
6:23 AM,42.8,33.8,70,29.81,10.0,NNE,3.5,-,N/A,,Mostly Cloudy,30,2013-09-25 13:23:00
6:56 AM,41.0,33.1,73,29.75,10.0,North,4.6,-,N/A,,Scattered Clouds,10,2013-09-25 13:56:00
7:56 AM,46.9,36.0,66,29.76,10.0,NNE,5.8,-,N/A,,Scattered Clouds,30,2013-09-25 14:56:00
8:56 AM,51.1,37.0,59,29.77,10.0,NE,4.6,-,N/A,,Scattered Clouds,40,2013-09-25 15:56:00
9:56 AM,54.0,37.0,53,29.78,10.0,Calm,Calm,-,N/A,,Scattered Clouds,0,2013-09-25 16:56:00
10:56 AM,55.0,28.0,35,29.76,10.0,NNW,5.8,17.3,N/A,,Mostly Cloudy,340,2013-09-25 17:56:00
11:56 AM,55.9,26.1,32,29.76,10.0,North,10.4,-,N/A,,Overcast,360,2013-09-25 18:56:00
12:56 PM,57.9,26.1,30,29.75,10.0,North,11.5,21.9,N/A,,Scattered Clouds,10,2013-09-25 19:56:00
1:56 PM,57.9,25.0,28,29.73,10.0,North,17.3,21.9,N/A,,Scattered Clouds,360,2013-09-25 20:56:00
2:56 PM,61.0,25.0,25,29.74,10.0,NW,21.9,28.8,0.00,Rain,Light Rain,320,2013-09-25 21:56:00
3:09 PM,59.0,26.6,29,29.80,10.0,NNE,9.2,19.6,0.00,,Mostly Cloudy,20,2013-09-25 22:09:00
3:56 PM,57.9,21.9,25,29.73,10.0,North,17.3,21.9,0.00,,Mostly Cloudy,360,2013-09-25 22:56:00
4:56 PM,55.9,21.0,26,29.74,10.0,North,17.3,-,N/A,,Mostly Cloudy,10,2013-09-25 23:56:00
5:56 PM,54.0,23.0,30,29.75,10.0,North,13.8,25.3,N/A,,Mostly Cloudy,350,2013-09-26 00:56:00
6:56 PM,51.1,24.1,35,29.75,10.0,North,13.8,19.6,N/A,,Mostly Cloudy,360,2013-09-26 01:56:00
7:56 PM,50.0,28.0,43,29.77,10.0,WNW,15.0,-,N/A,,Overcast,300,2013-09-26 02:56:00
8:34 PM,51.8,26.6,38,29.83,10.0,NNW,11.5,21.9,0.00,Rain,Light Rain,330,2013-09-26 03:34:00
8:49 PM,48.2,28.4,46,29.84,10.0,North,8.1,-,0.00,,Mostly Cloudy,10,2013-09-26 03:49:00
8:56 PM,48.0,27.0,44,29.77,10.0,North,8.1,-,0.00,,Mostly Cloudy,360,2013-09-26 03:56:00
9:56 PM,45.0,25.0,46,29.77,10.0,SW,4.6,-,N/A,,Scattered Clouds,230,2013-09-26 04:56:00
10:56 PM,41.0,26.1,55,29.78,10.0,NNW,5.8,-,N/A,,Clear,330,2013-09-26 05:56:00
11:56 PM,39.0,26.1,60,29.79,10.0,WNW,4.6,-,N/A,,Clear,300,2013-09-26 06:56:00